Tracking 27420 objects as of 28-May-2023
HD Live streaming from Space Station
objects crossing your sky now

ONEWEB-0329

Track ONEWEB-0329 now!
10-day predictions
ONEWEB-0329 is classified as:


NORAD ID: 49107
Int'l Code: 2021-075AJ
Perigee: 1,199.4 km
Apogee: 1,202.3 km
Inclination: 87.9 °
Period: 109.3 minutes
Semi major axis: 7571 km
RCS: Unknown
Launch date: August 21, 2021
Source: United Kingdom (UK)
Launch site: TYURATAM MISSILE AND SPACE COMPLEX (TTMTR)
Your satellite tracking list
Your tracking list is empty




NASA's NSSDC Master Catalog

Two Line Element Set (TLE):
1 49107U 21075AJ  23146.77954533  .00000055  00000-0  10840-3 0  9991
2 49107  87.9188 227.8369 0001864 107.3451 252.7884 13.17647363 86439
Source of the keplerian elements: AFSPC